| time (UTC) | temp F | wind direction | speed MPH | gust MPH | rain 1hr in | rain 24hr in | rain mn in | humidity % | barometer mb |
| 20260505065905 | 61 | 303 | 4.0 | 5.0 | 0.00 | 0.00 | 0.00 | 53 | 1010.0 |
| 20260505065826 | 61 | 303 | 4.0 | 5.0 | 0.00 | 0.00 | 0.00 | 53 | 1010.0 |
| 20260505065624 | 60 | 337 | 4.0 | 128.0 | 0.00 | 0.00 | 0.00 | 54 | 1010.0 |
| 20260505065500 | 60 | 337 | 2.0 | 128.0 | 0.00 | 0.00 | 0.00 | 52 | 1009.8 |
| 20260505065422 | 60 | 337 | 2.0 | 128.0 | 0.00 | 0.00 | 0.00 | 52 | 1009.8 |
| 20260505065320 | 60 | 281 | 128.0 | 128.0 | 0.00 | 0.00 | 0.00 | 55 | 1009.9 |
| 20260505064803 | 59 | 292 | 3.0 | 4.0 | 0.00 | 0.00 | 0.00 | 54 | 1009.9 |
| 20260505064604 | 59 | 292 | 4.0 | 4.0 | 0.00 | 0.00 | 0.00 | 57 | 1009.8 |
| 20260505064359 | 58 | 292 | 3.0 | 3.0 | 0.00 | 0.00 | 0.00 | 56 | 1010.1 |
| 20260505064146 | 58 | 337 | 2.0 | 4.0 | 0.00 | 0.00 | 0.00 | 55 | 1010.1 |
| 20260505063136 | 57 | 337 | 1.0 | 3.0 | 0.00 | 0.00 | 0.00 | 57 | 1009.7 |
| 20260505062932 | 57 | 0 | 0.0 | 3.0 | 0.00 | 0.00 | 0.00 | 56 | 1009.8 |
| 20260505062524 | 57 | 315 | 1.0 | 3.0 | 0.00 | 0.00 | 0.00 | 56 | 1010.1 |
| 20260505062125 | 56 | 315 | 2.0 | 4.0 | 0.00 | 0.00 | 0.00 | 59 | 1009.7 |
| 20260505061918 | 56 | 337 | 1.0 | 3.0 | 0.00 | 0.00 | 0.00 | 55 | 1009.8 |
| 20260505061715 | 56 | 348 | 1.0 | 6.0 | 0.00 | 0.00 | 0.00 | 57 | 1009.7 |
| 20260505061310 | 56 | 315 | 4.0 | 6.0 | 0.00 | 0.00 | 0.00 | 57 | 1010.1 |
| 20260505061109 | 55 | 225 | 1.0 | 6.0 | 0.00 | 0.00 | 0.00 | 59 | 1010.2 |
| 20260505060704 | 55 | 337 | 1.0 | 5.0 | 0.00 | 0.00 | 0.00 | 56 | 1010.0 |
| 20260505060300 | 55 | 315 | 1.0 | 3.0 | 0.00 | 0.00 | 0.00 | 57 | 1010.1 |
| 20260505055855 | 55 | 337 | 3.0 | 4.0 | 0.00 | 0.00 | 0.00 | 60 | 1010.4 |
| 20260505055653 | 55 | 0 | 0.0 | 3.0 | 0.00 | 0.00 | 0.00 | 57 | 1010.4 |
| 20260505055449 | 54 | 315 | 1.0 | 3.0 | 0.00 | 0.00 | 0.00 | 54 | 1010.1 |
| 20260505055253 | 54 | 292 | 2.0 | 3.0 | 0.00 | 0.00 | 0.00 | 58 | 1010.2 |
| 20260505055046 | 54 | 337 | 0.0 | 1.0 | 0.00 | 0.00 | 0.00 | 58 | 1010.1 |
| 20260505054844 | 54 | 315 | 0.0 | 0.0 | 0.00 | 0.00 | 0.00 | 59 | 1010.1 |
| 20260505054640 | 54 | 315 | 0.0 | 2.0 | 0.00 | 0.00 | 0.00 | 57 | 1010.1 |
| 20260505054440 | 54 | 337 | 1.0 | 2.0 | 0.00 | 0.00 | 0.00 | 58 | 1010.3 |
| 20260505053829 | 54 | 315 | 3.0 | 3.0 | 0.00 | 0.00 | 0.00 | 57 | 1010.1 |
| 20260505053625 | 54 | 315 | 1.0 | 2.0 | 0.00 | 0.00 | 0.00 | 58 | 1010.0 |
| 20260505053423 | 54 | 315 | 2.0 | 2.0 | 0.00 | 0.00 | 0.00 | 58 | 1010.1 |
| 20260505053222 | 54 | 315 | 2.0 | 2.0 | 0.00 | 0.00 | 0.00 | 54 | 1009.9 |
| 20260505053020 | 54 | 315 | 0.0 | 2.0 | 0.00 | 0.00 | 0.00 | 55 | 1010.0 |
| 20260505052615 | 54 | 315 | 1.0 | 3.0 | 0.00 | 0.00 | 0.00 | 58 | 1009.9 |
| 20260505052413 | 54 | 292 | 0.0 | 3.0 | 0.00 | 0.00 | 0.00 | 58 | 1010.0 |
| 20260505052009 | 54 | 270 | 3.0 | 4.0 | 0.00 | 0.00 | 0.00 | 58 | 1009.7 |
| 20260505051807 | 53 | 292 | 1.0 | 4.0 | 0.00 | 0.00 | 0.00 | 53 | 1009.8 |
| 20260505051749 | 53 | 270 | 1.0 | 2.0 | 0.00 | 0.00 | 0.00 | 58 | 1009.7 |
| 20260505051610 | 53 | 337 | 4.0 | 4.0 | 0.00 | 0.00 | 0.00 | 59 | 1009.8 |
| 20260505051402 | 53 | 270 | 1.0 | 2.0 | 0.00 | 0.00 | 0.00 | 58 | 1009.7 |
| 20260505051200 | 53 | 270 | 1.0 | 2.0 | 0.00 | 0.00 | 0.00 | 63 | 1009.8 |
| 20260505050755 | 53 | 303 | 3.0 | 6.0 | 0.00 | 0.00 | 0.00 | 56 | 1009.7 |
| 20260505041656 | 53 | 0 | 4.0 | 4.0 | 0.00 | 0.00 | 0.00 | 59 | 1010.1 |
| 20260505041049 | 53 | 315 | 3.0 | 6.0 | 0.00 | 0.00 | 0.00 | 57 | 1009.7 |
| 20260505040847 | 53 | 292 | 4.0 | 6.0 | 0.00 | 0.00 | 0.00 | 59 | 1009.4 |
| 20260505040648 | 53 | 292 | 4.0 | 6.0 | 0.00 | 0.00 | 0.00 | 59 | 1009.9 |
| 20260505040240 | 53 | 326 | 2.0 | 5.0 | 0.00 | 0.00 | 0.00 | 56 | 1010.0 |
| 20260505035834 | 53 | 337 | 2.0 | 3.0 | 0.00 | 0.00 | 0.00 | 58 | 1009.9 |
| 20260505035633 | 53 | 270 | 1.0 | 3.0 | 0.00 | 0.00 | 0.00 | 58 | 1009.6 |
| 20260505035430 | 53 | 225 | 0.0 | 3.0 | 0.00 | 0.00 | 0.00 | 59 | 1010.0 |
| 20260505035026 | 53 | 225 | 1.0 | 2.0 | 0.00 | 0.00 | 0.00 | 60 | 1010.0 |
| 20260505034824 | 53 | 270 | 0.0 | 2.0 | 0.00 | 0.00 | 0.00 | 64 | 1009.9 |
| 20260505034015 | 53 | 0 | 0.0 | 2.0 | 0.00 | 0.00 | 0.00 | 59 | 1009.7 |
| 20260505033923 | 53 | 292 | 2.0 | 4.0 | 0.00 | 0.00 | 0.00 | 59 | 1009.5 |
| 20260505033812 | 53 | 292 | 2.0 | 4.0 | 0.00 | 0.00 | 0.00 | 59 | 1009.5 |
| 20260505033708 | 53 | 315 | 2.0 | 4.0 | 0.00 | 0.00 | 0.00 | 57 | 1009.6 |
| 20260505033620 | 53 | 315 | 2.0 | 4.0 | 0.00 | 0.00 | 0.00 | 57 | 1009.6 |
| 20260505033408 | 53 | 315 | 3.0 | 3.0 | 0.00 | 0.00 | 0.00 | 58 | 1009.9 |
| 20260505033003 | 53 | 292 | 1.0 | 5.0 | 0.00 | 0.00 | 0.00 | 59 | 1009.6 |
| 20260505032801 | 53 | 292 | 2.0 | 4.0 | 0.00 | 0.00 | 0.00 | 56 | 1009.8 |
| 20260505032559 | 53 | 270 | 3.0 | 3.0 | 0.00 | 0.00 | 0.00 | 59 | 1009.8 |
| 20260505031952 | 53 | 270 | 3.0 | 5.0 | 0.00 | 0.00 | 0.00 | 58 | 1009.6 |
| 20260505031748 | 53 | 292 | 1.0 | 6.0 | 0.00 | 0.00 | 0.00 | 60 | 1009.7 |
| 20260505031547 | 53 | 292 | 1.0 | 6.0 | 0.00 | 0.00 | 0.00 | 59 | 1009.5 |
| 20260505031143 | 53 | 292 | 2.0 | 3.0 | 0.00 | 0.00 | 0.00 | 58 | 1009.4 |
| 20260505030940 | 52 | 292 | 1.0 | 3.0 | 0.00 | 0.00 | 0.00 | 59 | 1010.0 |
| 20260505030738 | 53 | 292 | 1.0 | 3.0 | 0.00 | 0.00 | 0.00 | 59 | 1010.1 |
| 20260505030536 | 52 | 270 | 1.0 | 3.0 | 0.00 | 0.00 | 0.00 | 60 | 1009.9 |
| 20260505025928 | 52 | 337 | 2.0 | 4.0 | 0.00 | 0.00 | 0.00 | 59 | 1009.8 |
| 20260505025523 | 52 | 292 | 1.0 | 3.0 | 0.00 | 0.00 | 0.00 | 55 | 1009.9 |
| 20260505025322 | 52 | 315 | 1.0 | 2.0 | 0.00 | 0.00 | 0.00 | 58 | 1009.5 |
| 20260505024918 | 52 | 270 | 1.0 | 3.0 | 0.00 | 0.00 | 0.00 | 58 | 1009.6 |
| 20260505024716 | 52 | 270 | 2.0 | 3.0 | 0.00 | 0.00 | 0.00 | 60 | 1010.2 |
| 20260505024311 | 52 | 270 | 1.0 | 3.0 | 0.00 | 0.00 | 0.00 | 59 | 1009.9 |
| 20260505023906 | 52 | 337 | 2.0 | 4.0 | 0.00 | 0.00 | 0.00 | 59 | 1010.0 |
| 20260505023502 | 52 | 337 | 1.0 | 4.0 | 0.00 | 0.00 | 0.00 | 59 | 1010.1 |
| 20260505023057 | 52 | 292 | 1.0 | 2.0 | 0.00 | 0.00 | 0.00 | 59 | 1009.9 |
| 20260505022855 | 52 | 326 | 2.0 | 3.0 | 0.00 | 0.00 | 0.00 | 58 | 1009.8 |
| 20260505022451 | 52 | 292 | 3.0 | 3.0 | 0.00 | 0.00 | 0.00 | 59 | 1009.9 |
| 20260505022246 | 52 | 292 | 3.0 | 3.0 | 0.00 | 0.00 | 0.00 | 57 | 1010.1 |
| 20260505022044 | 53 | 225 | 1.0 | 3.0 | 0.00 | 0.00 | 0.00 | 58 | 1010.2 |
| 20260505021844 | 52 | 225 | 3.0 | 3.0 | 0.00 | 0.00 | 0.00 | 58 | 1010.0 |
| 20260505021640 | 52 | 292 | 3.0 | 3.0 | 0.00 | 0.00 | 0.00 | 58 | 1009.9 |
| 20260505021438 | 53 | 326 | 3.0 | 3.0 | 0.00 | 0.00 | 0.00 | 59 | 1009.4 |
| 20260505021235 | 53 | 292 | 2.0 | 3.0 | 0.00 | 0.00 | 0.00 | 59 | 1010.2 |
| 20260505021035 | 53 | 337 | 2.0 | 3.0 | 0.00 | 0.00 | 0.00 | 58 | 1009.9 |
| 20260505020836 | 53 | 337 | 2.0 | 3.0 | 0.00 | 0.00 | 0.00 | 58 | 1009.8 |
| 20260505020832 | 53 | 337 | 2.0 | 3.0 | 0.00 | 0.00 | 0.00 | 58 | 1009.8 |
| 20260505020633 | 53 | 281 | 3.0 | 3.0 | 0.00 | 0.00 | 0.00 | 59 | 1010.0 |
| 20260505020426 | 53 | 303 | 3.0 | 3.0 | 0.00 | 0.00 | 0.00 | 58 | 1009.8 |
| 20260505020023 | 53 | 292 | 3.0 | 3.0 | 0.00 | 0.00 | 0.00 | 58 | 1010.0 |
| 20260505015821 | 53 | 337 | 1.0 | 3.0 | 0.00 | 0.00 | 0.00 | 58 | 1010.0 |
| 20260505015619 | 53 | 225 | 3.0 | 3.0 | 0.00 | 0.00 | 0.00 | 55 | 1009.6 |
| 20260505015415 | 53 | 236 | 1.0 | 3.0 | 0.00 | 0.00 | 0.00 | 58 | 1010.0 |
| 20260505015303 | 53 | 337 | 1.0 | 3.0 | 0.00 | 0.00 | 0.00 | 57 | 1010.0 |
| 20260505015212 | 53 | 337 | 1.0 | 3.0 | 0.00 | 0.00 | 0.00 | 57 | 1010.0 |
| 20260505014810 | 53 | 337 | 3.0 | 3.0 | 0.00 | 0.00 | 0.00 | 59 | 1010.1 |
| 20260505014608 | 53 | 292 | 2.0 | 3.0 | 0.00 | 0.00 | 0.00 | 56 | 1009.9 |
| 20260505014029 | 53 | 225 | 1.0 | 3.0 | 0.00 | 0.00 | 0.00 | 57 | 1009.8 |
| 20260505014000 | 53 | 337 | 3.0 | 3.0 | 0.00 | 0.00 | 0.00 | 57 | 1009.5 |
| 20260505013757 | 53 | 225 | 1.0 | 3.0 | 0.00 | 0.00 | 0.00 | 57 | 1009.8 |
| 20260505013559 | 53 | 315 | 1.0 | 3.0 | 0.00 | 0.00 | 0.00 | 53 | 1010.1 |
| 20260505013354 | 54 | 225 | 1.0 | 3.0 | 0.00 | 0.00 | 0.00 | 58 | 1010.2 |
| 20260505012948 | 54 | 225 | 2.0 | 2.0 | 0.00 | 0.00 | 0.00 | 55 | 1010.3 |
| 20260505012543 | 54 | 337 | 2.0 | 4.0 | 0.00 | 0.00 | 0.00 | 57 | 1009.8 |
| 20260505012345 | 54 | 292 | 4.0 | 4.0 | 0.00 | 0.00 | 0.00 | 57 | 1010.0 |
| 20260505012250 | 54 | 315 | 3.0 | 3.0 | 0.00 | 0.00 | 0.00 | 58 | 1010.1 |
| 20260505011441 | 54 | 337 | 2.0 | 4.0 | 0.00 | 0.00 | 0.00 | 57 | 1010.3 |
| 20260505011238 | 54 | 225 | 3.0 | 6.0 | 0.00 | 0.00 | 0.00 | 58 | 1010.2 |
| 20260505011036 | 54 | 281 | 4.0 | 7.0 | 0.00 | 0.00 | 0.00 | 55 | 1010.6 |
| 20260505010430 | 54 | 292 | 6.0 | 6.0 | 0.00 | 0.00 | 0.00 | 57 | 1010.2 |
| 20260505010227 | 54 | 303 | 3.0 | 6.0 | 0.00 | 0.00 | 0.00 | 59 | 1009.9 |
| 20260505010024 | 54 | 292 | 3.0 | 6.0 | 0.00 | 0.00 | 0.00 | 58 | 1010.4 |
| 20260505005822 | 54 | 292 | 2.0 | 5.0 | 0.00 | 0.00 | 0.00 | 56 | 1010.4 |
| 20260505005619 | 54 | 326 | 2.0 | 6.0 | 0.00 | 0.00 | 0.00 | 58 | 1010.3 |
| 20260505005420 | 54 | 292 | 4.0 | 6.0 | 0.00 | 0.00 | 0.00 | 53 | 1010.5 |
| 20260505005216 | 54 | 326 | 6.0 | 6.0 | 0.00 | 0.00 | 0.00 | 57 | 1010.5 |
| 20260505004812 | 54 | 292 | 1.0 | 6.0 | 0.00 | 0.00 | 0.00 | 57 | 1010.6 |
| 20260505004608 | 54 | 292 | 2.0 | 3.0 | 0.00 | 0.00 | 0.00 | 58 | 1010.6 |
| 20260505004410 | 54 | 270 | 1.0 | 4.0 | 0.00 | 0.00 | 0.00 | 58 | 1010.4 |
| 20260505004407 | 54 | 270 | 1.0 | 4.0 | 0.00 | 0.00 | 0.00 | 58 | 1010.4 |
| 20260505004204 | 53 | 270 | 1.0 | 5.0 | 0.00 | 0.00 | 0.00 | 58 | 1010.6 |
| 20260505004002 | 54 | 0 | 1.0 | 5.0 | 0.00 | 0.00 | 0.00 | 58 | 1010.4 |
| 20260505003800 | 53 | 315 | 5.0 | 6.0 | 0.00 | 0.00 | 0.00 | 58 | 1010.6 |
| 20260505003356 | 53 | 292 | 3.0 | 6.0 | 0.00 | 0.00 | 0.00 | 58 | 1010.3 |
| 20260505003153 | 53 | 292 | 4.0 | 4.0 | 0.00 | 0.00 | 0.00 | 58 | 1010.6 |
| 20260505002951 | 53 | 303 | 2.0 | 4.0 | 0.00 | 0.00 | 0.00 | 57 | 1010.7 |
| 20260505002749 | 53 | 303 | 4.0 | 5.0 | 0.00 | 0.00 | 0.00 | 57 | 1010.7 |
| 20260505002545 | 53 | 315 | 0.0 | 5.0 | 0.00 | 0.00 | 0.00 | 56 | 1010.4 |
| 20260505002343 | 53 | 292 | 5.0 | 5.0 | 0.00 | 0.00 | 0.00 | 59 | 1010.2 |
| 20260505002142 | 53 | 315 | 4.0 | 4.0 | 0.00 | 0.00 | 0.00 | 59 | 1010.7 |
| 20260505001740 | 53 | 281 | 3.0 | 4.0 | 0.00 | 0.00 | 0.00 | 58 | 1010.3 |
| 20260505001333 | 53 | 0 | 1.0 | 4.0 | 0.00 | 0.00 | 0.00 | 59 | 1010.6 |
| 20260505000928 | 53 | 0 | 0.0 | 3.0 | 0.00 | 0.00 | 0.00 | 59 | 1010.0 |
| 20260505000632 | 53 | 270 | 3.0 | 4.0 | 0.00 | 0.00 | 0.00 | 59 | 1010.7 |
| 20260505000524 | 53 | 270 | 3.0 | 4.0 | 0.00 | 0.00 | 0.00 | 59 | 1010.7 |
| 20260505000119 | 53 | 292 | 5.0 | 5.0 | 0.00 | 0.00 | 0.00 | 58 | 1010.7 |
| 20260504235917 | 53 | 281 | 4.0 | 4.0 | 0.00 | 0.00 | 0.00 | 58 | 1010.3 |
| 20260504235310 | 53 | 315 | 4.0 | 6.0 | 0.00 | 0.00 | 0.00 | 57 | 1011.0 |
| 20260504235108 | 53 | 270 | 3.0 | 6.0 | 0.00 | 0.00 | 0.00 | 57 | 1011.0 |
| 20260504235013 | 53 | 337 | 3.0 | 4.0 | 0.00 | 0.00 | 0.00 | 58 | 1010.7 |
| 20260504234906 | 53 | 337 | 3.0 | 4.0 | 0.00 | 0.00 | 0.00 | 58 | 1010.7 |
| 20260504234711 | 53 | 315 | 2.0 | 4.0 | 0.00 | 0.00 | 0.00 | 56 | 1010.6 |
| 20260504234501 | 53 | 270 | 4.0 | 4.0 | 0.00 | 0.00 | 0.00 | 55 | 1010.5 |
| 20260504234347 | 53 | 292 | 1.0 | 3.0 | 0.00 | 0.00 | 0.00 | 57 | 1010.4 |
| 20260504234259 | 53 | 292 | 1.0 | 3.0 | 0.00 | 0.00 | 0.00 | 57 | 1010.4 |
| 20260504234057 | 53 | 270 | 2.0 | 2.0 | 0.00 | 0.00 | 0.00 | 56 | 1010.3 |
| 20260504233855 | 53 | 270 | 1.0 | 2.0 | 0.00 | 0.00 | 0.00 | 57 | 1010.5 |
| 20260504233652 | 53 | 292 | 1.0 | 2.0 | 0.00 | 0.00 | 0.00 | 63 | 1010.4 |
| 20260504233449 | 53 | 292 | 2.0 | 2.0 | 0.00 | 0.00 | 0.00 | 59 | 1010.7 |
| 20260504233248 | 53 | 281 | 1.0 | 1.0 | 0.00 | 0.00 | 0.00 | 58 | 1010.4 |
| 20260504233130 | 53 | 281 | 1.0 | 2.0 | 0.00 | 0.00 | 0.00 | 58 | 1010.7 |
| 20260504232921 | 53 | 281 | 1.0 | 2.0 | 0.00 | 0.00 | 0.00 | 58 | 1010.6 |
| 20260504232356 | 54 | 0 | 3.0 | 3.0 | 0.00 | 0.00 | 0.00 | 58 | 1010.8 |
| 20260504232314 | 54 | 0 | 3.0 | 3.0 | 0.00 | 0.00 | 0.00 | 58 | 1010.8 |
| 20260504232112 | 53 | 337 | 1.0 | 2.0 | 0.00 | 0.00 | 0.00 | 59 | 1010.7 |
| 20260504231909 | 53 | 292 | 2.0 | 5.0 | 0.00 | 0.00 | 0.00 | 57 | 1010.7 |
| 20260504231707 | 53 | 225 | 2.0 | 5.0 | 0.00 | 0.00 | 0.00 | 58 | 1010.8 |
| 20260504231505 | 53 | 303 | 2.0 | 7.0 | 0.00 | 0.00 | 0.00 | 58 | 1010.7 |
| 20260504231059 | 54 | 270 | 3.0 | 6.0 | 0.00 | 0.00 | 0.00 | 57 | 1010.9 |
| 20260504230858 | 53 | 281 | 6.0 | 6.0 | 0.00 | 0.00 | 0.00 | 59 | 1010.5 |
| 20260504230655 | 53 | 326 | 1.0 | 5.0 | 0.00 | 0.00 | 0.00 | 58 | 1010.8 |
| 20260504230455 | 53 | 315 | 1.0 | 6.0 | 0.00 | 0.00 | 0.00 | 59 | 1010.9 |
| 20260504230252 | 53 | 292 | 2.0 | 6.0 | 0.00 | 0.00 | 0.00 | 54 | 1010.7 |
| 20260504225645 | 53 | 281 | 2.0 | 7.0 | 0.00 | 0.00 | 0.00 | 58 | 1010.8 |
| 20260504225441 | 53 | 326 | 4.0 | 8.0 | 0.00 | 0.00 | 0.00 | 57 | 1010.7 |
| 20260504225240 | 53 | 281 | 5.0 | 8.0 | 0.00 | 0.00 | 0.00 | 59 | 1010.9 |
| 20260504224836 | 53 | 326 | 8.0 | 9.0 | 0.00 | 0.00 | 0.00 | 59 | 1010.9 |
| 20260504223922 | 53 | 337 | 6.0 | 9.0 | 0.00 | 0.00 | 0.03 | 60 | 1010.5 |
| 20260504223720 | 53 | 315 | 2.0 | 8.0 | 0.00 | 0.00 | 0.03 | 58 | 1010.5 |
| 20260504223517 | 53 | 348 | 8.0 | 8.0 | 0.00 | 0.00 | 0.03 | 60 | 1010.8 |
| 20260504223316 | 53 | 315 | 5.0 | 7.0 | 0.00 | 0.00 | 0.03 | 58 | 1010.5 |
| 20260504222912 | 53 | 337 | 4.0 | 8.0 | 0.00 | 0.00 | 0.03 | 58 | 1010.9 |
| 20260504222507 | 54 | 348 | 5.0 | 10.0 | 0.00 | 0.00 | 0.03 | 58 | 1010.9 |
| 20260504222102 | 54 | 326 | 7.0 | 8.0 | 0.00 | 0.00 | 0.03 | 59 | 1010.8 |
| 20260504221859 | 54 | 315 | 4.0 | 6.0 | 0.00 | 0.00 | 0.03 | 59 | 1010.9 |
| 20260504221657 | 54 | 292 | 1.0 | 5.0 | 0.00 | 0.00 | 0.03 | 60 | 1010.9 |
| 20260504221454 | 53 | 315 | 4.0 | 5.0 | 0.00 | 0.00 | 0.03 | 59 | 1010.7 |
| 20260504221253 | 53 | 225 | 4.0 | 5.0 | 0.00 | 0.00 | 0.03 | 59 | 1010.9 |
| 20260504221050 | 53 | 337 | 2.0 | 6.0 | 0.00 | 0.00 | 0.03 | 59 | 1010.8 |
| 20260504220646 | 53 | 281 | 5.0 | 6.0 | 0.00 | 0.00 | 0.03 | 60 | 1010.8 |
| 20260504220444 | 53 | 337 | 5.0 | 9.0 | 0.00 | 0.00 | 0.03 | 60 | 1010.4 |
| 20260504220409 | 54 | 337 | 4.0 | 10.0 | 0.00 | 0.00 | 0.03 | 60 | 1010.3 |
| 20260504220241 | 53 | 292 | 5.0 | 9.0 | 0.00 | 0.00 | 0.03 | 60 | 1011.1 |
| 20260504220039 | 53 | 315 | 9.0 | 10.0 | 0.00 | 0.00 | 0.03 | 60 | 1011.0 |
| 20260504215837 | 54 | 337 | 4.0 | 10.0 | 0.00 | 0.00 | 0.03 | 60 | 1010.3 |
| 20260504215433 | 54 | 315 | 10.0 | 12.0 | 0.00 | 0.00 | 0.03 | 60 | 1011.0 |
| 20260504215027 | 54 | 292 | 5.0 | 10.0 | 0.00 | 0.00 | 0.03 | 58 | 1010.9 |
| 20260504214825 | 54 | 292 | 8.0 | 8.0 | 0.00 | 0.00 | 0.03 | 58 | 1011.0 |
| 20260504214421 | 54 | 348 | 3.0 | 7.0 | 0.00 | 0.00 | 0.03 | 61 | 1011.2 |
| 20260504214219 | 54 | 337 | 5.0 | 7.0 | 0.00 | 0.00 | 0.03 | 57 | 1011.1 |
| 20260504214016 | 54 | 225 | 4.0 | 9.0 | 0.00 | 0.00 | 0.03 | 61 | 1011.0 |
| 20260504213814 | 54 | 315 | 8.0 | 9.0 | 0.00 | 0.00 | 0.03 | 61 | 1010.9 |
| 20260504213612 | 54 | 225 | 4.0 | 8.0 | 0.00 | 0.00 | 0.03 | 62 | 1011.4 |
| 20260504213005 | 54 | 225 | 3.0 | 7.0 | 0.00 | 0.00 | 0.03 | 61 | 1011.1 |
| 20260504212803 | 53 | 337 | 4.0 | 8.0 | 0.00 | 0.00 | 0.03 | 60 | 1011.4 |
| 20260504212635 | 54 | 225 | 3.0 | 11.0 | 0.00 | 0.00 | 0.03 | 60 | 1011.5 |
| 20260504212601 | 54 | 225 | 3.0 | 11.0 | 0.00 | 0.00 | 0.03 | 60 | 1011.5 |
| 20260504212358 | 53 | 225 | 7.0 | 11.0 | 0.00 | 0.00 | 0.03 | 59 | 1011.2 |
| 20260504212156 | 54 | 337 | 6.0 | 8.0 | 0.00 | 0.00 | 0.03 | 61 | 1011.2 |
| 20260504211953 | 54 | 337 | 4.0 | 10.0 | 0.00 | 0.00 | 0.03 | 64 | 1011.4 |
| 20260504211751 | 53 | 315 | 5.0 | 10.0 | 0.00 | 0.00 | 0.03 | 59 | 1011.2 |
| 20260504211549 | 54 | 315 | 6.0 | 8.0 | 0.00 | 0.00 | 0.03 | 58 | 1011.2 |
| 20260504211347 | 54 | 292 | 7.0 | 7.0 | 0.00 | 0.00 | 0.03 | 60 | 1011.3 |
| 20260504211145 | 54 | 303 | 4.0 | 6.0 | 0.00 | 0.00 | 0.03 | 62 | 1011.6 |
| 20260504210942 | 54 | 315 | 4.0 | 15.0 | 0.00 | 0.00 | 0.03 | 60 | 1011.6 |
| 20260504210740 | 53 | 337 | 6.0 | 15.0 | 0.00 | 0.00 | 0.03 | 60 | 1011.1 |
| 20260504210538 | 54 | 303 | 10.0 | 14.0 | 0.00 | 0.00 | 0.03 | 62 | 1011.0 |
| 20260504210336 | 54 | 337 | 9.0 | 9.0 | 0.00 | 0.00 | 0.03 | 61 | 1011.3 |
| 20260504210134 | 54 | 225 | 4.0 | 7.0 | 0.00 | 0.00 | 0.03 | 61 | 1011.4 |
| 20260504205931 | 54 | 337 | 3.0 | 7.0 | 0.00 | 0.00 | 0.03 | 58 | 1011.7 |
| 20260504205730 | 54 | 292 | 3.0 | 8.0 | 0.00 | 0.00 | 0.03 | 58 | 1011.4 |
| 20260504205527 | 54 | 315 | 5.0 | 9.0 | 0.00 | 0.00 | 0.03 | 63 | 1011.4 |
| 20260504205410 | 54 | 348 | 8.0 | 9.0 | 0.00 | 0.00 | 0.03 | 61 | 1011.5 |
| 20260504205324 | 54 | 348 | 8.0 | 9.0 | 0.00 | 0.00 | 0.03 | 61 | 1011.5 |
| 20260504205122 | 54 | 348 | 8.0 | 9.0 | 0.00 | 0.00 | 0.03 | 62 | 1011.7 |
| 20260504204919 | 54 | 225 | 4.0 | 5.0 | 0.00 | 0.00 | 0.03 | 60 | 1011.4 |
| 20260504204717 | 54 | 315 | 4.0 | 8.0 | 0.00 | 0.00 | 0.03 | 58 | 1011.0 |
| 20260504204515 | 54 | 258 | 7.0 | 10.0 | 0.00 | 0.00 | 0.03 | 60 | 1011.4 |
| 20260504204111 | 54 | 292 | 6.0 | 7.0 | 0.00 | 0.00 | 0.03 | 61 | 1011.6 |
| 20260504203908 | 54 | 225 | 4.0 | 7.0 | 0.00 | 0.00 | 0.03 | 60 | 1011.2 |
| 20260504203504 | 54 | 292 | 6.0 | 6.0 | 0.00 | 0.00 | 0.03 | 60 | 1011.4 |
| 20260504203300 | 54 | 326 | 5.0 | 11.0 | 0.00 | 0.00 | 0.03 | 65 | 1011.6 |
| 20260504203133 | 54 | 337 | 4.0 | 11.0 | 0.00 | 0.00 | 0.03 | 59 | 1011.4 |
| 20260504203059 | 54 | 337 | 4.0 | 11.0 | 0.00 | 0.00 | 0.03 | 59 | 1011.4 |
| 20260504202857 | 54 | 337 | 5.0 | 12.0 | 0.00 | 0.00 | 0.03 | 60 | 1011.0 |
| 20260504202655 | 54 | 292 | 6.0 | 12.0 | 0.00 | 0.00 | 0.03 | 60 | 1011.5 |
| 20260504202452 | 54 | 303 | 9.0 | 11.0 | 0.00 | 0.00 | 0.03 | 61 | 1011.2 |
| 20260504202250 | 54 | 315 | 10.0 | 11.0 | 0.00 | 0.00 | 0.03 | 60 | 1011.4 |
| 20260504202048 | 54 | 292 | 9.0 | 9.0 | 0.00 | 0.00 | 0.03 | 60 | 1011.2 |
| 20260504201845 | 54 | 348 | 3.0 | 6.0 | 0.00 | 0.00 | 0.03 | 61 | 1011.3 |
| 20260504201646 | 54 | 225 | 1.0 | 2.0 | 0.00 | 0.00 | 0.03 | 61 | 1011.3 |
| 20260504201441 | 54 | 225 | 0.0 | 4.0 | 0.00 | 0.00 | 0.03 | 58 | 1011.4 |
| 20260504201247 | 54 | 326 | 3.0 | 4.0 | 0.00 | 0.00 | 0.03 | 61 | 1011.2 |
| 20260504201240 | 54 | 315 | 2.0 | 4.0 | 0.00 | 0.00 | 0.03 | 62 | 1011.3 |
| 20260504201037 | 54 | 326 | 3.0 | 4.0 | 0.00 | 0.00 | 0.03 | 61 | 1011.2 |
| 20260504200836 | 54 | 315 | 2.0 | 5.0 | 0.00 | 0.00 | 0.03 | 66 | 1011.2 |
| 20260504200430 | 54 | 270 | 4.0 | 8.0 | 0.00 | 0.00 | 0.03 | 63 | 1011.0 |
| 20260504200228 | 54 | 270 | 5.0 | 6.0 | 0.00 | 0.00 | 0.03 | 62 | 1011.1 |
| 20260504200025 | 54 | 270 | 2.0 | 6.0 | 0.00 | 0.00 | 0.03 | 61 | 1010.1 |
| 20260504195822 | 54 | 303 | 4.0 | 6.0 | 0.00 | 0.00 | 0.03 | 62 | 1010.9 |
| 20260504195621 | 54 | 292 | 4.0 | 6.0 | 0.00 | 0.00 | 0.03 | 60 | 1010.9 |
| 20260504195419 | 54 | 292 | 5.0 | 6.0 | 0.00 | 0.00 | 0.03 | 61 | 1010.8 |
| 20260504195216 | 54 | 292 | 4.0 | 5.0 | 0.00 | 0.00 | 0.03 | 63 | 1010.8 |
| 20260504195014 | 54 | 292 | 2.0 | 3.0 | 0.00 | 0.00 | 0.03 | 60 | 1010.7 |
| 20260504194609 | 54 | 292 | 5.0 | 5.0 | 0.00 | 0.00 | 0.03 | 60 | 1010.5 |
| 20260504194003 | 54 | 315 | 3.0 | 5.0 | 0.00 | 0.00 | 0.03 | 59 | 1010.4 |
| 20260504193644 | 54 | 225 | 2.0 | 5.0 | 0.00 | 0.00 | 0.03 | 60 | 1010.4 |
| 20260504193558 | 54 | 225 | 2.0 | 5.0 | 0.00 | 0.00 | 0.03 | 60 | 1010.4 |
| 20260504193356 | 54 | 303 | 2.0 | 7.0 | 0.00 | 0.00 | 0.03 | 61 | 1010.5 |
| 20260504193154 | 54 | 292 | 5.0 | 7.0 | 0.00 | 0.00 | 0.03 | 61 | 1010.5 |
| 20260504192951 | 54 | 225 | 5.0 | 14.0 | 0.00 | 0.00 | 0.03 | 59 | 1010.4 |
| 20260504192546 | 54 | 337 | 13.0 | 14.0 | 0.00 | 0.00 | 0.03 | 59 | 1009.7 |
| 20260504192344 | 54 | 337 | 10.0 | 12.0 | 0.00 | 0.00 | 0.03 | 62 | 1010.0 |
| 20260504191940 | 54 | 292 | 5.0 | 13.0 | 0.00 | 0.00 | 0.03 | 60 | 1010.0 |
| 20260504191737 | 54 | 337 | 8.0 | 13.0 | 0.00 | 0.00 | 0.03 | 58 | 1010.2 |
| 20260504191343 | 54 | 225 | 3.0 | 6.0 | 0.00 | 0.00 | 0.03 | 62 | 1010.1 |
| 20260504191141 | 54 | 258 | 6.0 | 6.0 | 0.00 | 0.00 | 0.03 | 59 | 1010.2 |
| 20260504190939 | 54 | 225 | 5.0 | 7.0 | 0.00 | 0.00 | 0.03 | 57 | 1010.0 |
| 20260504190736 | 54 | 292 | 6.0 | 8.0 | 0.00 | 0.00 | 0.03 | 62 | 1010.0 |
| 20260504190534 | 54 | 225 | 5.0 | 8.0 | 0.00 | 0.00 | 0.03 | 60 | 1010.4 |
| 20260504185927 | 54 | 225 | 6.0 | 10.0 | 0.00 | 0.00 | 0.02 | 60 | 1010.4 |
| 20260504185724 | 54 | 348 | 8.0 | 10.0 | 0.00 | 0.00 | 0.02 | 60 | 1010.4 |
| 20260504185523 | 54 | 225 | 5.0 | 15.0 | 0.00 | 0.00 | 0.02 | 58 | 1010.4 |
| 20260504185320 | 54 | 225 | 7.0 | 15.0 | 0.00 | 0.00 | 0.02 | 60 | 1009.8 |
| 20260504184309 | 54 | 225 | 5.0 | 10.0 | 0.00 | 0.00 | 0.02 | 59 | 1010.5 |
| 20260504183905 | 54 | 315 | 9.0 | 11.0 | 0.00 | 0.00 | 0.02 | 59 | 1010.1 |
| 20260504183501 | 54 | 292 | 12.0 | 14.0 | 0.00 | 0.00 | 0.02 | 57 | 1010.5 |
| 20260504182853 | 55 | 326 | 6.0 | 16.0 | 0.00 | 0.00 | 0.02 | 58 | 1010.5 |
| 20260504182448 | 55 | 225 | 11.0 | 13.0 | 0.00 | 0.00 | 0.02 | 58 | 1010.1 |
| 20260504181510 | 55 | 303 | 12.0 | 15.0 | 0.00 | 0.00 | 0.02 | 57 | 1010.4 |
| 20260504181434 | 55 | 303 | 12.0 | 15.0 | 0.00 | 0.00 | 0.02 | 57 | 1010.4 |
| 20260504181117 | 55 | 292 | 9.0 | 18.0 | 0.00 | 0.00 | 0.02 | 57 | 1010.6 |
| 20260504181030 | 55 | 292 | 9.0 | 18.0 | 0.00 | 0.00 | 0.02 | 57 | 1010.6 |
| 20260504180910 | 55 | 303 | 14.0 | 15.0 | 0.00 | 0.00 | 0.02 | 57 | 1010.4 |
| 20260504180827 | 55 | 303 | 14.0 | 15.0 | 0.00 | 0.00 | 0.02 | 57 | 1010.4 |
| 20260504180507 | 55 | 292 | 12.0 | 16.0 | 0.00 | 0.00 | 0.01 | 57 | 1010.6 |
| 20260504180423 | 55 | 292 | 12.0 | 16.0 | 0.00 | 0.00 | 0.01 | 57 | 1010.6 |
| 20260504180058 | 56 | 292 | 15.0 | 17.0 | 0.00 | 0.00 | 0.01 | 57 | 1010.1 |
| 20260504175926 | 56 | 348 | 6.0 | 17.0 | 0.00 | 0.00 | 0.01 | 56 | 1010.5 |
| 20260504175723 | 56 | 326 | 13.0 | 18.0 | 0.00 | 0.00 | 0.01 | 56 | 1010.8 |
| 20260504175521 | 56 | 337 | 10.0 | 18.0 | 0.00 | 0.00 | 0.01 | 55 | 1010.4 |
| 20260504175306 | 56 | 315 | 7.0 | 17.0 | 0.00 | 0.00 | 0.01 | 55 | 1010.6 |
| 20260504174836 | 57 | 337 | 13.0 | 23.0 | 0.00 | 0.00 | 0.01 | 55 | 1010.3 |
| 20260504174800 | 57 | 337 | 13.0 | 23.0 | 0.00 | 0.00 | 0.01 | 55 | 1010.3 |
| 20260504174254 | 57 | 292 | 19.0 | 19.0 | 0.00 | 0.00 | 0.01 | 55 | 1010.4 |
| 20260504173859 | 58 | 292 | 11.0 | 21.0 | 0.00 | 0.00 | 0.01 | 56 | 1010.7 |
| 20260504173555 | 58 | 292 | 21.0 | 21.0 | 0.00 | 0.00 | 0.01 | 53 | 1010.6 |
| 20260504173443 | 58 | 315 | 7.0 | 19.0 | 0.00 | 0.00 | 0.01 | 55 | 1010.5 |
| 20260504173309 | 58 | 348 | 16.0 | 19.0 | 0.00 | 0.00 | 0.01 | 54 | 1010.6 |
| 20260504173208 | 58 | 292 | 5.0 | 19.0 | 0.00 | 0.00 | 0.01 | 53 | 1010.7 |
| 20260504173057 | 59 | 281 | 19.0 | 19.0 | 0.00 | 0.00 | 0.01 | 53 | 1010.4 |
| 20260504172651 | 59 | 225 | 12.0 | 14.0 | 0.00 | 0.00 | 0.01 | 54 | 1010.4 |
| 20260504172346 | 59 | 315 | 14.0 | 14.0 | 0.00 | 0.00 | 0.01 | 52 | 1010.3 |
| 20260504172144 | 60 | 315 | 10.0 | 127.0 | 0.00 | 0.00 | 0.01 | 52 | 1010.1 |
| 20260504171525 | 61 | 292 | 24.0 | 24.0 | 0.00 | 0.00 | 0.03 | 53 | 1010.1 |
| 20260504171410 | 61 | 281 | 12.0 | 24.0 | 0.00 | 0.00 | 0.03 | 52 | 1010.0 |
| 20260504170936 | 61 | 292 | 7.0 | 9.0 | 0.00 | 0.00 | 0.01 | 52 | 1009.8 |
| 20260504170616 | 61 | 337 | 7.0 | 8.0 | 0.00 | 0.00 | 0.02 | 52 | 1009.7 |
| 20260504170413 | 61 | 281 | 4.0 | 11.0 | 0.00 | 0.00 | 0.02 | 52 | 1009.6 |
| 20260504170211 | 61 | 315 | 4.0 | 11.0 | 0.00 | 0.00 | 0.02 | 52 | 1009.8 |
| 20260504160307 | 64 | 315 | 5.0 | 5.0 | 0.00 | 0.00 | 0.00 | 45 | 1009.0 |
| 20260504151120 | 66 | 315 | 2.0 | 4.0 | 0.00 | 0.00 | 0.00 | 40 | 1009.0 |
| 20260504150917 | 66 | 315 | 2.0 | 4.0 | 0.00 | 0.00 | 0.00 | 40 | 1008.9 |
| 20260504150513 | 67 | 281 | 2.0 | 5.0 | 0.00 | 0.00 | 0.00 | 39 | 1009.0 |
| 20260504150311 | 67 | 225 | 3.0 | 11.0 | 0.00 | 0.00 | 0.00 | 39 | 1009.0 |
| 20260504150109 | 67 | 292 | 6.0 | 11.0 | 0.00 | 0.00 | 0.00 | 38 | 1009.0 |
| 20260504141052 | 74 | 270 | 2.0 | 9.0 | 0.00 | 0.00 | 0.00 | 36 | 1008.2 |
| 20260504140849 | 74 | 270 | 3.0 | 8.0 | 0.00 | 0.00 | 0.00 | 36 | 1008.2 |
| 20260504140730 | 75 | 315 | 5.0 | 9.0 | 0.00 | 0.00 | 0.00 | 38 | 1007.9 |
| 20260504140445 | 75 | 315 | 5.0 | 9.0 | 0.00 | 0.00 | 0.00 | 38 | 1007.9 |
| 20260504140243 | 75 | 315 | 8.0 | 8.0 | 0.00 | 0.00 | 0.00 | 38 | 1007.9 |
| 20260504130810 | 70 | 292 | 7.0 | 11.0 | 0.00 | 0.00 | 0.00 | 44 | 1008.1 |
| 20260504130806 | 70 | 315 | 8.0 | 11.0 | 0.00 | 0.00 | 0.00 | 43 | 1008.2 |
| 20260504130414 | 70 | 281 | 5.0 | 8.0 | 0.00 | 0.00 | 0.00 | 44 | 1008.1 |
| 20260504130213 | 70 | 292 | 5.0 | 8.0 | 0.00 | 0.00 | 0.00 | 43 | 1008.1 |
| 20260504120126 | 71 | 315 | 3.0 | 6.0 | 0.00 | 0.00 | 0.00 | 40 | 1008.9 |
| 20260504110625 | 75 | 315 | 5.0 | 7.0 | 0.00 | 0.00 | 0.00 | 37 | 1009.2 |
| 20260504110423 | 75 | 315 | 7.0 | 8.0 | 0.00 | 0.00 | 0.00 | 37 | 1009.1 |
| 20260504110221 | 75 | 315 | 5.0 | 8.0 | 0.00 | 0.00 | 0.00 | 36 | 1009.1 |
| 20260504100555 | 74 | 337 | 4.0 | 5.0 | 0.00 | 0.00 | 0.00 | 40 | 1009.8 |
| 20260504100352 | 74 | 315 | 5.0 | 5.0 | 0.00 | 0.00 | 0.00 | 40 | 1009.9 |
| 20260504081908 | 63 | 225 | 0.0 | 4.0 | 0.00 | 0.00 | 0.00 | 56 | 1010.1 |
| 20260504081819 | 63 | 225 | 0.0 | 4.0 | 0.00 | 0.00 | 0.00 | 56 | 1010.1 |
| 20260504081616 | 63 | 337 | 0.0 | 4.0 | 0.00 | 0.00 | 0.00 | 54 | 1010.4 |
| 20260504081414 | 63 | 315 | 2.0 | 2.0 | 0.00 | 0.00 | 0.00 | 56 | 1010.3 |
| 20260504081407 | 63 | 0 | 2.0 | 5.0 | 0.00 | 0.00 | 0.00 | 56 | 1010.0 |
| 20260504081328 | 63 | 0 | 2.0 | 5.0 | 0.00 | 0.00 | 0.00 | 56 | 1010.0 |
| 20260504080519 | 63 | 292 | 3.0 | 126.0 | 0.00 | 0.00 | 0.00 | 56 | 1010.5 |
| 20260504080316 | 63 | 292 | 2.0 | 126.0 | 0.00 | 0.00 | 0.00 | 54 | 1010.5 |
| 20260504080212 | 63 | 225 | 126.0 | 126.0 | 0.00 | 0.00 | 0.00 | 54 | 1010.3 |
| 20260504070403 | 62 | 225 | 1.0 | 3.0 | 0.00 | 0.00 | 0.00 | 57 | 1010.1 |